Tracking 35274 objects as of 11-Sep-2026
HD Live streaming from Space Station
objects crossing your sky now

COSMOS 1489 DEB


COSMOS 1489 DEB is no longer on orbit


NORAD ID: 14371
Int'l Code: 1983-083D
Launch date: August 10, 1983
Source: Commonwealth of Independent States (former USSR) (CIS)
Launch site: TYURATAM MISSILE AND SPACE COMPLEX (TTMTR)
Decay date: 1983-09-24

Note: This is SATELLITE DEBRIS
Your satellite tracking list
Your tracking list is empty




NASA's NSSDC Master Catalog

Two Line Element Set (TLE):
1 14371U 83083  D 83267.19810836  .33502760 +33340-4 +13600-2 0  9995
2 14371 064.7152 022.5793 0057917 135.4880 231.9300 16.34722018007198
Source of the keplerian elements: AFSPC